GFSNW_prec_cthk_075.txt.gz
RH
38 40 32 31 32 36 51 57 64 51 54 66 65 67 60 53 48 53 55 49 48 47 43 45 46 52 52 51 54 54 49 45 42 40 45 53 56 54 51 57 58 63 58 49
31 40 33 32 38 41 59 64 63 62 64 69 71 74 66 57 57 60 59 58 55 52 49 45 46 50 52 48 48 54 54 56 50 47 42 47 53 56 54 55 55 52 60 50
27 40 41 32 39 44 68 69 72 69 82 65 66 77 70 64 62 66 67 63 60 60 56 53 52 48 48 51 51 47 58 68 71 58 59 61 63 61 62 58 58 52 49 50
39 49 48 38 44 47 73 73 71 63 87 68 66 80 74 74 71 72 73 70 69 69 65 59 51 49 45 39 42 52 51 58 60 68 56 55 56 61 58 59 56 53 49 47
53 59 59 54 51 54 77 74 68 69 81 88 81 91 85 80 83 81 78 77 78 74 70 62 52 48 47 47 42 46 56 65 66 69 59 54 56 53 50 54 54 49 50 49
78 65 65 66 67 58 68 65 62 74 74 83 95 90 84 84 83 81 82 82 83 84 84 74 64 58 52 48 49 51 53 69 73 68 69 68 58 50 54 51 53 50 52 49
97 97 82 75 76 68 57 60 67 77 74 85 87 93 89 83 83 84 85 84 87 88 90 82 71 67 59 55 50 50 52 67 81 75 77 76 43 49 59 56 48 45 45 52
94 98 98 96 90 82 76 70 73 75 75 87 91 87 89 90 90 89 87 89 89 91 90 90 80 74 70 60 55 53 53 61 70 77 77 55 42 40 51 60 50 54 49 52
94 96 98 98 98 93 93 82 78 79 82 78 87 93 89 90 95 95 90 92 95 97 95 90 83 82 73 71 64 62 60 58 70 85 84 66 38 48 58 52 50 54 55 58
98 95 97 98 97 92 92 87 80 79 80 78 89 88 91 92 95 95 94 95 98 96 94 90 84 78 73 72 79 78 70 74 78 70 74 55 42 48 51 54 49 53 57 58
95 95 97 98 95 90 88 84 81 79 80 84 90 90 93 95 95 95 93 98 98 96 92 89 87 82 75 70 68 78 72 73 70 74 76 69 55 63 67 66 54 53 50 52
93 97 96 98 97 93 84 80 75 80 88 93 96 96 91 88 87 93 94 87 88 87 87 85 82 83 80 73 70 65 67 70 73 63 60 56 62 61 52 46 44 44 42 43
97 98 97 98 98 98 95 87 90 95 98 98 98 98 95 97 95 93 93 91 89 85 82 82 81 78 72 78 73 68 63 57 55 53 46 44 43 52 58 57 50 46 46 45
98 98 98 98 98 98 98 98 98 99 98 99 98 97 95 92 92 93 91 93 93 93 88 85 83 80 73 74 70 67 63 61 60 58 53 50 46 51 50 48 45 44 46 54
99 98 98 98 98 98 98 98 98 99 95 96 93 89 90 90 94 93 95 96 97 96 95 94 90 86 85 81 77 72 65 62 64 59 65 63 59 60 57 56 56 52 52 55
99 98 98 98 98 98 98 98 99 98 98 95 93 84 86 85 89 93 95 96 97 98 96 94 93 90 85 83 78 71 68 69 69 69 70 67 67 67 65 61 63 65 64 63
99 98 98 98 98 98 98 96 90 94 97 93 89 84 80 77 90 90 94 95 96 97 98 97 93 91 89 84 77 72 69 68 71 74 74 71 71 71 68 66 67 73 70 74
98 98 98 98 98 98 98 90 85 88 90 88 87 82 75 69 72 80 88 98 98 98 99 98 95 96 94 82 71 68 66 71 71 70 76 77 78 77 76 74 76 81 81 91
99 99 99 99 98 97 97 96 94 88 84 79 73 73 89 83 77 82 98 99 99 98 98 98 98 95 86 73 72 70 70 69 67 74 82 87 84 86 89 87 90 89 91 94
99 98 99 99 98 95 92 94 91 86 80 81 83 84 91 90 86 92 99 95 97 98 98 97 98 90 79 73 71 70 73 74 72 76 80 88 93 94 97 94 93 98 95 96
98 97 91 98 99 97 98 92 89 86 86 86 87 86 95 94 90 97 95 97 92 92 95 95 84 73 77 79 78 77 76 74 74 75 78 88 94 97 97 97 97 97 96 93
87 88 95 95 94 91 85 90 89 88 93 92 92 95 97 97 97 96 95 95 93 88 88 90 79 72 75 73 72 72 75 79 77 79 82 84 88 94 96 98 97 98 95 93
78 74 74 79 86 85 79 82 85 89 94 92 92 92 94 98 91 94 93 90 89 86 88 84 75 74 73 78 82 84 84 86 85 83 85 88 90 93 94 92 93 97 95 92
73 75 83 78 79 79 81 80 83 83 87 89 89 88 90 89 89 92 86 90 92 91 87 81 81 89 87 91 92 96 97 97 96 93 90 90 92 92 94 92 92 92 94 94
68 69 79 77 80 79 79 80 80 80 82 85 90 89 89 90 90 91 91 92 91 87 85 88 91 90 93 96 96 95 96 96 97 96 94 97 97 97 95 93 94 94 96 95
62 67 74 76 78 80 79 79 80 82 84 87 87 89 86 88 86 84 88 86 89 89 92 96 96 97 96 97 97 97 97 98 97 97 97 97 98 98 97 97 97 97 97 97
72 79 80 81 81 80 82 83 85 89 92 95 96 94 93 96 94 95 95 93 94 94 97 97 97 97 97 97 97 98 98 97 97 97 97 97 98 98 97 97 98 97 97 97

GFSNW_prec_cthk_078.txt.gz
RH
39 41 40 51 44 37 36 44 50 37 55 58 59 61 53 41 33 43 49 49 49 44 47 48 53 67 59 61 67 56 53 51 56 55 52 51 49 52 55 60 61 59 57 54
39 36 37 50 51 40 44 51 50 43 61 62 62 64 58 49 39 46 51 51 48 49 48 50 49 62 61 60 58 58 58 51 50 44 45 50 54 57 58 58 57 58 67 59
35 41 39 40 53 41 49 55 56 50 59 62 64 61 60 56 47 49 55 56 56 51 50 54 51 51 60 57 53 59 57 68 61 52 53 55 60 62 61 61 62 59 57 56
34 36 38 37 52 41 52 58 52 52 61 51 69 65 58 54 52 54 60 59 61 61 58 55 56 51 47 51 52 55 57 63 64 56 55 51 53 52 53 56 61 68 58 57
49 37 33 34 55 56 58 53 56 61 57 62 67 87 86 64 55 62 69 70 73 68 61 58 55 52 52 48 45 53 55 57 59 59 55 45 43 43 44 45 46 51 55 53
86 76 51 46 71 77 78 68 62 69 60 59 73 96 70 58 67 76 81 82 82 77 72 62 58 58 55 54 52 49 55 59 63 61 62 56 53 43 40 41 49 52 54 48
95 95 98 79 63 72 82 82 71 70 60 71 64 78 79 82 81 85 85 87 88 86 83 81 71 64 59 60 55 54 53 56 62 64 66 60 42 41 44 51 48 53 49 44
99 98 97 98 89 69 75 90 84 69 64 57 61 67 82 83 89 89 89 90 92 94 95 90 79 73 70 59 55 57 52 56 64 63 58 44 42 42 42 44 47 53 57 54
97 99 98 98 99 93 78 84 86 81 66 54 56 62 78 94 88 91 92 95 97 97 98 97 84 75 66 66 63 59 59 60 62 68 56 52 44 49 43 38 49 53 51 57
94 95 98 98 98 99 95 88 86 88 72 60 69 59 72 93 89 91 93 97 98 98 97 93 81 75 69 70 73 83 74 70 70 63 66 57 57 58 55 57 65 57 50 54
89 86 93 99 98 98 98 93 90 86 78 62 73 74 81 82 90 92 96 98 98 98 94 85 81 79 74 71 72 85 75 74 74 68 68 69 51 56 54 58 58 56 57 59
88 89 87 99 98 98 99 95 95 94 91 76 68 71 77 87 89 93 96 89 93 90 87 81 79 79 78 75 74 68 80 67 72 65 63 68 83 71 61 63 63 60 58 52
79 90 88 99 97 98 97 90 91 91 89 79 82 80 77 94 96 94 98 95 93 89 85 86 84 80 73 81 71 68 64 63 72 78 66 62 64 60 58 54 53 55 53 46
84 92 93 99 97 97 96 85 84 88 83 83 78 76 90 97 97 98 94 96 95 94 90 88 84 79 73 76 73 69 69 66 59 56 53 53 54 57 55 53 52 49 46 44
89 96 99 98 98 98 93 92 85 81 82 83 81 86 87 89 98 97 96 98 98 98 96 94 88 83 79 78 76 70 67 65 65 61 65 61 58 57 58 55 53 51 50 52
92 98 98 98 98 98 98 97 96 95 94 97 97 93 92 94 96 95 97 98 99 98 97 97 91 86 86 86 78 78 74 72 70 65 64 63 62 63 62 62 62 60 57 56
96 99 98 98 98 98 98 90 84 95 98 98 95 95 94 94 94 98 98 99 98 98 98 96 91 88 88 91 84 80 74 72 69 67 66 68 70 71 69 67 65 64 61 62
98 98 98 98 99 99 98 92 90 95 98 96 94 92 92 88 92 97 96 98 98 97 95 93 90 90 89 89 80 75 73 71 69 69 72 71 69 70 70 72 73 72 71 69
98 98 98 99 98 98 96 94 96 95 96 93 90 91 92 87 87 84 88 91 96 97 96 97 97 97 92 82 78 76 76 73 71 71 67 67 66 68 73 76 80 80 80 80
98 98 97 98 99 96 96 99 98 98 97 91 85 80 82 78 76 75 83 92 98 99 99 97 99 93 89 87 79 74 71 71 71 70 70 70 69 72 79 84 87 88 88 91
93 96 96 98 99 97 98 98 96 91 83 76 75 69 79 83 91 86 90 98 98 98 98 98 96 91 86 82 77 72 72 72 73 73 74 73 74 74 76 82 93 92 95 96
86 86 92 95 98 96 90 89 86 82 82 79 86 91 93 95 92 91 98 98 96 96 95 94 84 75 75 73 72 73 74 72 72 72 73 75 79 80 82 82 90 94 94 97
88 84 84 85 81 80 78 82 85 85 86 84 88 90 92 93 92 93 93 95 96 91 89 79 71 74 74 74 74 73 75 78 81 83 84 84 85 84 85 86 88 93 93 92
75 70 75 75 74 77 78 83 87 88 87 90 90 91 97 90 91 96 89 89 87 84 79 77 73 77 79 80 85 86 84 91 95 96 97 97 96 91 88 88 92 95 96 95
71 71 76 74 75 81 85 82 81 82 84 85 84 83 86 89 89 86 84 85 83 78 80 81 84 86 89 92 94 94 95 95 96 95 97 98 98 98 97 94 95 97 97 97
72 77 78 80 77 79 79 77 76 78 80 82 81 84 83 88 85 85 89 85 86 87 89 91 93 93 93 93 94 95 95 97 98 98 98 97 98 98 98 97 97 97 97 97
68 78 78 77 77 77 75 75 77 80 84 88 90 91 94 89 89 91 91 93 94 94 95 96 95 95 96 96 96 97 97 98 98 98 98 98 98 98 98 98 98 97 98 98

GFSNW_prec_cthk_084.txt.gz
RH
63 68 63 70 67 60 66 60 60 57 39 71 71 66 47 36 37 36 30 33 33 43 52 43 49 62 59 59 55 62 64 70 68 69 73 64 74 72 79 95 91 79 90 81
61 73 80 61 71 68 70 66 56 56 88 70 69 61 53 45 43 42 38 35 38 39 50 48 44 50 57 57 56 57 60 61 68 69 69 65 66 76 77 81 85 97 98 75
64 65 80 69 65 73 68 77 67 46 82 84 74 70 56 50 42 40 46 42 43 43 51 50 48 54 52 48 57 57 61 62 72 91 88 92 70 65 69 76 83 87 87 86
69 64 58 63 61 64 73 69 63 64 62 77 80 71 81 65 52 50 46 46 47 52 54 53 50 46 47 48 50 63 65 67 62 66 85 87 86 83 80 69 75 77 70 69
69 62 58 49 52 56 66 68 60 57 72 69 65 62 59 63 69 66 65 51 51 52 52 51 55 56 63 61 58 62 66 67 61 60 66 67 70 75 69 82 82 71 67 67
79 87 83 60 40 48 62 66 65 63 65 53 62 68 59 53 46 58 68 70 49 54 62 71 62 54 63 62 55 57 75 74 64 64 62 62 60 56 53 47 48 51 54 49
95 91 89 81 66 39 51 54 64 74 58 58 64 56 69 71 70 50 72 80 82 64 65 70 68 61 54 51 49 47 55 69 71 68 61 77 55 55 59 61 53 45 52 70
98 96 97 98 89 72 54 45 58 60 60 53 56 70 67 68 81 71 76 89 92 75 69 79 74 65 59 48 43 41 43 53 69 71 65 59 55 56 56 55 53 57 62 62
97 97 95 98 99 96 87 77 65 76 75 70 76 75 74 68 85 83 84 90 88 68 67 81 81 76 70 67 53 43 46 49 57 65 64 59 42 41 47 45 48 62 66 81
93 92 94 95 97 99 96 85 80 94 96 82 86 82 75 74 82 84 91 87 89 76 88 97 78 72 73 78 78 75 66 62 61 57 61 50 40 53 46 51 67 68 68 66
77 77 81 91 95 97 98 89 89 85 91 82 88 86 72 75 81 83 92 98 82 84 95 97 80 77 75 76 74 79 76 77 74 65 68 67 59 61 61 75 78 79 75 69
69 71 71 77 86 97 99 98 95 91 93 84 86 82 74 69 90 98 86 94 91 83 89 79 85 92 86 78 70 75 80 70 67 58 54 56 63 63 82 82 82 80 75 72
74 76 77 74 78 86 97 98 97 98 97 92 85 75 61 62 77 91 97 97 98 97 98 97 89 90 79 81 70 79 89 79 85 77 82 84 95 89 71 73 68 70 72 67
77 76 76 76 78 84 97 97 97 98 97 93 75 74 53 55 57 66 89 91 95 95 93 97 96 97 81 82 77 78 86 91 82 84 91 93 97 97 95 87 79 75 69 64
71 79 79 76 79 90 99 98 98 96 88 85 81 71 58 55 55 67 79 91 96 97 98 98 97 85 82 76 77 86 90 93 92 98 94 97 97 94 89 81 77 66 58 55
81 85 82 82 81 97 99 98 98 95 90 99 95 72 55 56 54 66 81 90 96 97 98 98 89 85 90 94 88 96 87 91 92 93 90 92 86 85 81 74 64 58 54 56
96 94 88 86 86 94 96 92 76 85 99 98 96 90 60 55 72 87 93 94 98 98 98 93 89 90 91 92 98 98 91 89 88 86 83 78 74 71 67 63 60 60 57 57
98 94 90 89 96 99 99 91 82 89 98 94 96 97 94 86 87 92 94 98 98 98 97 89 88 90 96 98 91 90 92 94 90 87 82 79 74 70 69 67 65 63 62 60
93 96 99 98 99 98 97 90 91 89 91 92 94 95 98 95 97 95 99 97 98 94 96 91 90 97 97 96 93 90 91 90 88 86 81 77 74 71 68 66 66 65 63 61
98 99 98 99 99 97 97 97 98 97 96 95 93 90 98 93 95 95 97 99 98 98 96 93 97 96 95 93 90 88 88 87 85 84 81 79 76 73 69 64 63 62 61 59
98 97 96 96 99 97 98 98 97 96 97 93 90 93 94 92 95 95 93 96 95 93 94 95 97 92 91 89 87 84 84 84 82 80 80 80 73 69 65 63 63 61 61 61
90 90 96 98 98 97 96 96 94 89 89 87 93 95 94 90 90 91 92 89 91 95 97 98 92 90 85 87 87 90 88 85 83 81 78 74 72 70 67 65 66 69 70 70
94 91 94 95 93 96 89 88 90 87 86 82 83 88 88 88 94 99 91 89 85 82 90 91 87 88 89 92 92 90 86 78 72 70 68 67 68 70 71 74 73 73 78 86
94 90 88 92 87 85 86 83 83 84 83 77 75 75 75 78 82 92 88 88 91 94 89 84 89 89 86 84 81 78 75 73 73 71 71 72 73 75 78 82 83 85 89 89
83 84 86 84 83 80 80 80 75 74 73 81 84 87 91 91 90 83 85 87 88 86 84 85 89 89 85 83 82 82 81 80 79 80 81 83 88 91 92 94 95 95 94 94
78 78 79 77 74 77 79 81 82 82 83 85 87 93 94 91 86 82 87 84 83 87 87 87 86 88 88 87 87 87 89 89 88 88 91 93 93 94 96 97 97 98 98 98
76 79 83 87 85 85 85 85 85 84 84 86 84 83 83 80 83 86 89 91 93 94 95 96 96 96 95 94 94 94 93 91 89 85 79 76 76 81 84 86 88 93 97 98

GFSNW_prec_cthk_087.txt.gz
RH
53 50 53 59 66 81 72 71 68 51 44 56 68 74 62 46 50 43 37 29 36 41 44 43 42 72 69 58 62 66 63 58 60 64 69 78 88 93 93 98 89 88 98 94
62 60 55 80 75 85 85 79 64 59 78 57 72 68 66 55 47 46 42 36 30 34 38 49 40 55 69 59 53 60 58 68 77 66 71 73 78 88 90 89 94 96 96 89
65 66 65 74 83 80 85 83 77 55 88 91 73 71 61 58 51 45 49 51 46 40 36 44 57 54 67 57 44 50 60 62 68 82 93 98 94 88 87 97 97 87 94 87
81 70 67 72 77 79 85 81 82 70 76 91 97 87 84 76 61 52 45 45 41 45 48 41 45 44 55 56 52 44 51 61 70 63 69 87 90 97 94 95 88 96 83 88
89 72 66 65 58 72 78 73 77 75 61 71 89 84 79 79 77 73 65 54 44 45 45 44 47 53 51 57 60 53 46 55 79 67 65 70 88 83 89 88 95 91 91 89
93 79 83 83 56 55 64 64 67 75 64 66 72 82 77 70 68 62 66 72 71 58 53 51 53 51 57 61 67 64 56 52 67 68 68 63 72 68 71 76 76 74 82 79
91 94 90 88 88 59 44 50 64 69 61 59 64 66 69 69 65 57 55 58 67 67 66 58 51 57 66 56 51 54 57 57 64 75 67 75 65 65 66 65 72 68 70 67
88 92 96 97 91 77 64 40 53 60 61 57 52 58 55 61 67 73 67 55 59 69 79 87 72 56 62 57 45 42 40 49 60 76 75 58 55 58 52 65 74 73 70 66
89 93 95 96 96 96 89 71 57 56 63 55 50 52 66 71 64 69 69 59 64 77 92 90 72 66 62 61 56 41 38 44 56 60 76 70 48 59 60 54 82 78 75 69
92 94 93 93 95 96 96 92 83 78 65 54 58 58 75 82 78 88 84 76 85 97 94 86 76 63 54 70 84 85 74 61 63 63 71 61 50 56 59 64 79 70 59 61
96 97 90 86 89 94 94 95 92 85 86 79 75 72 85 93 88 89 87 91 94 97 88 81 65 64 66 72 75 93 84 85 82 73 73 69 53 55 59 71 67 65 60 58
87 83 82 79 83 88 92 94 95 92 87 82 80 78 81 89 86 90 94 98 90 98 77 66 72 81 84 91 93 93 95 77 83 75 66 74 77 72 82 75 74 80 78 74
76 73 74 75 79 84 89 93 98 98 94 89 76 66 74 77 71 83 94 98 94 98 96 90 93 90 85 97 90 92 97 90 81 78 88 86 88 94 88 87 93 85 85 81
77 77 82 82 85 81 83 93 98 99 97 94 76 73 67 67 60 76 79 85 95 95 98 97 94 96 92 94 91 88 97 94 94 96 95 92 99 97 97 91 80 71 68 65
77 78 80 82 88 87 85 86 90 97 94 93 83 74 70 70 54 52 73 80 84 89 95 95 91 89 91 91 88 98 86 97 99 98 98 98 99 96 94 90 85 81 79 71
85 88 82 83 90 94 90 85 89 94 98 97 92 88 79 61 56 45 61 62 77 86 90 92 93 92 98 97 98 93 88 94 97 98 99 98 97 93 89 84 82 78 74 72
87 95 91 91 96 87 85 82 85 95 99 97 93 83 77 59 59 53 56 73 86 93 91 91 92 91 94 98 98 98 98 97 97 95 94 92 89 86 82 80 79 77 75 69
97 96 96 97 98 95 94 98 92 96 96 93 88 87 95 59 58 59 69 85 93 94 97 95 95 92 96 94 92 93 96 96 95 96 91 89 84 82 81 79 75 72 70 66
99 99 99 98 96 93 98 96 95 93 85 85 91 90 96 85 73 72 88 96 98 98 97 94 95 98 97 96 93 93 93 93 92 90 90 88 84 81 80 79 76 70 66 64
98 99 98 96 99 97 98 99 97 95 94 94 93 88 97 95 87 91 96 97 97 97 91 96 97 96 96 96 91 89 89 88 89 91 90 88 83 81 77 76 73 70 67 62
97 98 97 98 98 98 97 96 93 87 87 86 87 96 98 99 98 98 93 96 97 97 96 97 97 95 93 92 89 88 88 88 88 88 87 84 81 79 76 72 67 65 64 62
92 88 98 98 98 92 97 90 88 84 89 92 90 98 98 96 95 97 98 96 97 98 98 99 96 91 91 91 88 87 84 84 84 84 81 77 75 74 71 69 67 64 64 65
98 95 97 98 98 98 93 93 94 92 89 91 93 96 97 93 95 95 94 96 95 93 94 92 87 93 91 89 91 91 88 87 83 78 76 73 71 68 66 66 67 68 70 72
90 90 92 92 91 90 89 85 87 88 87 88 88 94 95 96 96 98 94 93 94 94 89 88 91 92 89 87 84 81 80 79 77 75 73 72 72 72 72 72 75 79 83 87
81 81 87 87 86 89 89 88 87 89 87 86 84 83 81 86 86 83 85 85 87 86 89 91 90 88 86 85 83 80 79 79 79 79 79 80 80 81 82 87 90 92 92 92
80 81 85 86 83 85 84 84 82 79 82 82 84 88 89 88 86 83 84 84 86 86 86 87 86 86 87 88 89 89 89 87 86 86 84 84 83 83 83 82 81 78 79 82
82 85 81 75 74 76 78 78 81 81 81 82 82 85 88 86 84 86 87 91 93 95 97 97 96 95 94 88 80 74 68 64 62 63 64 64 65 66 70 74 78 78 80 83

GFSNW_prec_cthk_090.txt.gz
RH
82 76 62 54 64 71 72 76 74 69 66 50 54 72 66 63 73 80 72 67 57 64 59 64 60 72 73 68 67 63 61 64 58 49 60 67 79 96 97 99 92 90 96 83
83 82 64 60 62 81 85 86 75 68 85 64 53 55 50 66 83 74 67 54 47 49 62 66 70 70 72 65 59 56 54 64 72 56 64 78 94 90 94 95 98 95 94 84
87 90 76 72 69 88 84 88 79 74 70 83 58 69 74 69 68 73 66 54 40 38 46 53 57 57 55 61 53 51 45 51 66 81 81 89 97 92 96 95 99 89 90 82
86 88 85 71 66 73 82 79 79 90 86 83 75 65 75 78 73 62 61 53 50 50 43 45 41 46 48 50 50 47 47 50 59 67 71 81 87 91 93 98 96 97 87 84
85 88 83 62 61 65 71 73 81 76 82 91 97 97 89 90 74 71 63 62 64 71 74 66 54 50 52 53 51 52 50 48 46 51 65 83 72 85 87 90 97 94 93 87
86 87 91 79 76 64 59 62 67 75 77 87 86 93 92 92 91 83 75 69 67 69 67 66 63 53 48 46 48 49 55 58 59 54 62 75 74 73 81 76 89 82 95 86
86 90 91 91 83 75 64 49 58 62 63 71 78 84 85 84 83 85 79 78 78 72 65 57 54 52 46 44 42 45 51 55 57 62 55 66 60 67 67 88 86 82 82 87
85 86 91 92 94 79 77 62 47 57 59 57 58 61 68 72 75 73 71 70 66 61 66 61 64 60 51 38 40 41 44 49 53 55 58 52 58 65 74 76 86 81 87 90
87 86 91 93 93 94 88 77 57 45 55 48 55 58 62 61 65 66 66 66 62 57 57 67 77 76 57 48 44 50 52 51 56 55 62 62 52 64 66 74 84 81 86 90
94 94 91 93 91 93 93 90 83 71 64 42 54 59 62 70 70 68 70 71 68 69 70 73 83 79 59 55 58 69 77 82 62 55 64 56 45 65 67 77 83 80 85 84
96 98 98 96 91 89 94 92 93 88 80 68 49 56 53 63 74 80 74 78 82 85 86 86 78 76 66 62 56 71 78 94 92 78 70 69 46 61 77 84 81 77 81 80
94 97 99 99 95 85 86 93 93 97 92 84 75 63 53 56 73 84 86 92 96 94 94 97 86 75 73 74 76 78 90 89 92 82 73 76 69 64 70 78 81 84 85 78
93 94 93 87 82 86 84 87 96 95 94 89 82 73 73 69 73 81 78 90 98 99 99 97 94 88 86 84 84 95 98 94 94 91 96 85 89 97 87 86 94 93 85 86
91 90 89 86 80 82 84 82 86 94 94 92 83 78 69 68 73 77 73 87 94 96 96 97 89 87 85 92 95 98 97 98 99 98 98 98 97 98 99 96 94 88 91 87
90 91 91 89 89 92 90 86 80 90 95 91 85 81 70 68 66 64 67 81 87 93 89 88 87 87 89 90 96 97 97 97 97 98 96 99 98 98 98 97 95 89 84 78
87 92 90 85 89 96 95 89 80 85 98 98 92 88 79 73 69 68 57 72 86 87 83 82 87 87 91 98 95 93 96 97 98 96 98 98 98 97 94 93 92 88 82 78
98 99 98 97 98 96 94 86 74 82 88 97 96 87 83 77 72 75 56 71 79 80 80 85 88 89 98 98 97 95 97 97 97 97 98 96 96 95 91 89 87 82 76 71
92 96 99 99 99 99 95 87 83 89 98 97 93 82 84 83 75 76 61 57 68 76 82 88 91 95 95 92 92 94 94 98 97 97 97 97 95 93 87 84 81 77 74 71
93 99 99 99 99 96 98 88 97 98 98 90 81 79 86 80 79 70 63 66 76 81 87 92 94 92 89 92 95 95 95 96 96 95 96 94 89 86 86 83 77 74 71 71
98 99 99 99 99 94 95 99 98 99 95 87 83 86 90 94 89 70 70 74 86 92 92 96 95 89 88 92 92 93 91 88 85 85 87 88 85 84 83 79 74 72 72 71
99 97 96 93 94 98 98 99 97 91 83 81 86 90 94 99 96 81 76 88 97 97 96 99 94 92 93 93 92 89 86 84 84 83 81 83 82 81 80 78 75 74 74 73
86 87 91 98 99 99 94 91 89 80 79 84 86 89 92 99 99 96 93 97 98 99 99 97 95 91 93 93 91 89 88 86 85 84 84 86 84 82 80 77 75 73 73 73
92 95 98 96 93 95 90 86 84 83 83 86 88 95 98 97 97 97 98 98 98 96 97 97 92 92 91 92 89 86 85 85 83 82 82 82 82 80 80 78 76 75 74 74
93 89 89 91 89 84 78 73 71 75 82 88 90 94 95 95 96 98 95 96 96 95 89 86 89 90 90 85 83 82 81 81 79 77 76 77 78 77 77 76 77 77 78 80
85 81 85 81 80 80 80 80 80 83 87 88 88 92 90 95 93 92 87 84 88 86 85 85 87 88 87 85 84 83 82 81 80 80 80 81 80 80 80 82 84 86 87 89
80 81 84 84 88 89 87 88 89 89 89 87 86 89 88 89 85 81 82 83 83 82 83 86 87 87 87 88 89 88 82 74 69 65 63 62 62 62 64 66 68 69 72 76
80 85 85 85 87 89 88 86 82 81 82 83 80 81 85 83 81 84 83 85 89 90 90 89 88 84 71 57 51 50 51 52 53 54 56 58 61 65 67 68 70 71 74 77

GFSNW_prec_cthk_096.txt.gz
RH
32 40 46 58 73 67 57 52 58 64 74 94 78 67 49 66 89 97 96 96 99 98 83 87 90 90 73 65 59 59 52 59 63 63 58 58 65 75 79 90 89 94 93 79
37 42 50 65 76 68 61 53 62 74 78 89 96 80 51 53 72 83 92 93 98 97 87 93 95 95 85 77 73 73 67 68 73 79 73 66 75 83 90 98 92 88 96 77
40 44 53 68 78 71 63 55 64 71 84 94 94 80 49 44 68 74 81 93 98 96 89 79 91 95 89 82 75 69 66 70 66 76 74 69 71 77 89 96 97 93 92 82
41 47 57 69 80 67 58 56 62 69 81 92 90 81 62 87 85 89 87 98 98 95 94 94 88 79 77 75 73 70 69 71 67 59 54 57 57 61 75 85 90 92 81 85
42 49 62 73 79 70 60 54 57 63 72 76 84 82 79 88 92 98 97 92 92 92 88 89 85 77 77 77 70 68 67 67 64 58 47 49 46 45 47 63 71 72 83 83
43 50 62 79 83 73 67 57 54 62 65 71 78 80 82 90 96 97 88 86 88 84 82 62 56 58 57 56 58 56 52 54 58 51 42 42 35 33 48 62 74 81 88 79
43 53 65 80 87 80 74 67 60 55 64 71 72 73 81 87 87 94 87 81 82 79 70 50 43 42 41 42 40 41 41 43 50 56 45 47 24 33 41 60 76 84 87 85
45 54 66 81 87 86 80 74 68 63 61 63 65 68 74 74 77 87 90 84 80 75 63 57 51 49 45 46 50 48 48 48 51 56 54 40 32 42 49 62 70 81 92 96
46 54 67 81 87 88 85 83 71 67 63 54 58 65 65 64 72 80 81 79 74 68 67 63 58 57 54 58 52 55 57 58 60 62 66 61 31 50 43 39 65 76 88 90
48 58 71 86 87 90 88 83 83 71 68 59 53 63 68 70 72 77 79 75 74 71 71 71 72 67 61 58 62 58 59 64 67 68 69 64 51 47 41 49 66 79 89 94
51 65 78 88 92 94 92 83 87 83 74 70 60 55 51 54 65 73 73 71 71 72 73 77 77 68 61 62 60 62 62 73 78 75 81 74 68 56 51 53 58 74 90 93
57 70 81 91 94 96 96 88 87 92 90 80 71 65 53 41 50 61 62 66 70 71 76 76 82 80 75 73 72 67 75 83 82 83 77 79 83 78 74 63 61 67 85 92
65 76 87 95 97 98 96 96 89 89 94 91 86 73 61 49 38 45 51 60 67 73 78 82 91 85 83 81 77 78 77 78 84 95 97 91 90 87 82 81 72 72 73 87
70 80 91 98 99 99 98 96 88 89 95 94 84 80 78 68 57 44 39 56 70 79 86 89 94 86 87 86 82 80 80 79 93 97 95 96 96 95 92 90 87 82 76 81
76 86 96 98 99 99 98 98 89 91 92 90 87 85 82 78 71 62 45 54 74 86 94 92 89 83 90 90 84 81 85 88 95 92 98 98 94 97 98 95 98 97 94 94
82 91 97 98 99 99 98 96 82 85 89 90 91 87 80 81 71 70 66 63 76 82 90 90 89 81 84 88 85 88 92 94 97 95 98 97 98 98 98 96 98 97 92 89
90 97 99 99 99 98 96 89 89 96 91 93 89 89 79 78 74 73 77 76 85 84 84 87 88 82 91 90 91 96 96 97 98 95 98 98 97 97 97 97 93 90 88 86
96 98 98 97 98 98 93 92 93 99 98 95 88 79 76 81 81 82 87 84 82 76 86 89 85 84 90 88 93 92 94 96 97 97 96 97 97 94 92 88 85 83 81 81
98 95 98 99 98 92 86 91 96 97 99 93 84 75 77 83 87 89 91 86 84 76 84 87 86 78 79 80 87 91 92 90 90 92 92 92 89 85 82 80 79 80 78 77
98 99 99 97 93 96 96 99 98 99 99 90 84 76 77 85 90 92 85 86 83 74 69 75 75 73 71 78 86 89 87 87 86 85 84 83 84 81 79 77 76 77 78 78
92 95 99 92 97 99 99 98 98 97 88 83 79 80 86 88 89 91 82 86 80 75 72 82 79 68 74 86 87 89 87 85 85 86 85 82 81 81 81 79 78 78 79 79
94 93 91 98 98 98 98 97 95 85 82 73 76 81 84 89 93 95 84 79 85 83 81 79 74 79 89 88 89 90 85 81 81 84 83 82 81 81 80 79 80 82 82 82
99 99 99 98 95 98 94 85 81 75 67 68 76 83 86 88 94 99 88 82 90 91 88 83 82 89 88 88 86 84 81 82 82 81 79 78 77 77 75 74 74 74 73 73
97 94 96 94 90 89 70 60 69 61 69 76 79 82 91 97 98 98 94 88 90 86 88 85 86 86 87 85 82 81 78 76 75 74 72 70 66 63 61 61 62 62 62 62
86 87 86 83 68 68 67 66 67 72 72 73 83 92 96 97 98 92 92 94 95 90 85 77 76 78 77 76 76 77 79 79 77 70 62 54 50 49 50 52 53 55 56 57
80 75 77 81 74 74 72 72 73 72 80 90 91 94 92 93 90 89 90 89 81 75 75 77 82 83 81 80 78 70 54 44 43 44 46 47 49 51 52 54 55 55 55 56
77 79 78 80 77 76 76 74 74 75 84 88 87 86 87 86 87 87 86 78 72 75 84 78 62 58 48 42 41 41 43 44 45 46 47 48 48 50 52 53 53 54 53 52

GFSNW_prec_cthk_099.txt.gz
RH
17 28 31 35 44 50 50 49 43 43 49 67 80 78 68 51 45 73 79 96 98 98 98 99 94 91 80 75 62 58 59 60 65 66 62 59 58 62 63 67 79 75 81 59
18 29 34 39 47 55 52 48 43 46 58 70 81 78 66 47 54 70 80 88 96 97 98 98 98 92 80 76 71 69 67 71 82 85 75 66 67 67 68 80 80 76 75 58
20 29 37 43 52 57 53 48 41 43 59 72 75 73 58 59 72 77 90 93 96 98 98 98 99 98 90 81 79 79 76 75 68 69 68 66 65 64 68 75 81 72 76 64
21 31 39 45 56 57 55 50 43 46 57 62 70 70 70 89 94 88 95 97 98 98 97 96 97 96 92 87 81 77 76 78 70 65 58 59 61 58 53 53 61 74 66 67
19 31 42 47 59 60 62 52 43 46 53 61 66 62 68 83 95 98 98 96 93 94 95 97 97 94 90 86 74 69 64 74 67 63 53 52 46 38 33 41 51 61 63 63
22 33 43 49 62 67 69 65 47 45 50 56 60 61 67 75 94 85 90 96 91 89 85 78 74 76 71 64 61 57 57 58 55 52 52 45 36 31 31 41 49 58 69 68
24 34 44 52 65 72 77 71 57 52 52 56 55 55 58 72 85 82 83 85 85 80 80 65 61 62 57 55 52 49 49 47 44 48 47 41 32 33 37 38 42 63 74 89
24 36 48 54 66 76 82 78 65 60 55 58 54 58 61 67 63 79 80 80 78 75 68 64 56 56 53 58 59 54 49 48 49 46 45 35 42 51 48 43 42 71 91 94
28 38 50 56 68 78 85 82 75 66 61 49 57 60 66 67 67 70 78 76 77 72 68 66 59 60 53 55 55 55 51 50 50 58 55 49 44 51 48 47 46 67 80 93
30 40 49 59 71 80 87 85 79 70 69 57 56 57 57 70 69 67 72 74 73 71 71 70 68 62 59 59 56 61 61 61 63 67 64 57 62 58 48 40 51 63 71 84
30 42 52 63 76 83 89 89 84 77 75 64 62 61 62 57 63 68 67 72 74 75 74 74 77 72 68 69 66 71 65 67 73 72 73 72 73 66 70 70 60 58 64 81
32 44 55 68 79 86 93 91 90 81 80 81 70 67 63 60 49 54 65 72 82 79 73 72 74 79 76 74 70 71 82 83 77 77 82 85 84 80 79 75 71 66 61 68
38 50 63 73 81 89 94 96 95 87 84 82 81 72 70 61 50 41 49 62 74 71 71 74 76 79 80 81 78 73 78 76 75 77 85 91 93 89 85 78 76 77 73 71
46 57 70 79 87 94 97 96 94 96 85 83 78 78 79 71 63 52 45 47 63 68 69 74 74 75 77 79 80 77 77 76 79 88 91 93 97 95 92 88 86 87 85 81
51 63 74 85 90 97 98 99 97 97 89 82 80 81 83 80 76 66 56 41 51 60 69 78 79 80 77 85 81 80 82 80 78 88 95 95 96 96 94 95 96 92 96 90
53 68 80 89 93 98 99 95 97 97 90 88 83 80 80 80 77 72 70 55 53 67 77 78 79 77 80 83 85 87 87 89 88 88 97 96 96 97 96 96 97 95 93 92
61 75 85 92 97 99 98 93 94 92 90 90 87 76 75 78 77 75 69 73 66 66 82 81 82 81 85 84 87 88 93 97 97 97 98 97 98 97 97 97 93 90 88 83
70 83 91 98 99 99 98 96 94 96 98 97 93 80 73 78 78 78 76 77 79 80 79 81 88 86 81 80 85 92 94 96 97 97 97 97 97 97 94 91 88 84 80 79
79 91 98 99 98 97 93 98 98 97 98 97 86 83 83 79 78 80 85 84 85 83 82 80 84 84 76 75 80 88 90 92 93 94 96 96 94 91 87 82 77 75 73 73
92 98 99 94 93 95 96 99 98 97 96 93 81 80 81 79 76 83 88 87 85 82 77 72 74 76 76 73 69 75 87 86 83 84 84 85 85 82 80 78 76 75 74 74
98 98 98 95 98 98 98 98 98 92 85 77 76 78 82 81 81 90 88 82 78 79 75 77 76 69 68 66 71 80 82 85 84 82 80 79 78 77 75 76 75 73 73 73
97 97 96 99 99 99 98 97 96 84 74 71 73 77 81 85 88 83 84 83 79 76 80 75 67 64 65 75 86 87 86 86 85 82 83 84 83 81 81 80 78 77 76 75
98 99 97 98 97 98 96 82 78 70 64 67 70 77 85 87 89 94 97 84 85 94 88 77 69 79 87 90 88 89 87 85 81 79 81 82 81 77 70 64 60 58 58 58
92 96 98 97 95 93 69 55 58 55 58 67 70 76 83 86 88 94 97 86 88 87 87 81 86 89 89 88 85 84 84 82 79 77 73 63 56 55 54 52 50 49 49 50
98 88 81 78 82 69 60 57 61 69 75 73 76 82 84 88 95 97 94 96 92 88 87 82 78 77 77 78 80 82 82 74 60 49 44 42 43 45 46 49 51 53 54 54
86 82 79 73 72 71 67 65 68 70 68 77 80 87 92 97 94 93 92 92 87 79 75 76 83 82 74 71 61 44 38 39 41 42 43 44 45 47 49 49 50 51 51 50
81 78 79 75 67 69 68 67 67 72 76 79 84 87 88 90 89 86 86 85 78 73 80 81 53 47 40 39 40 41 42 43 44 45 47 48 49 49 49 50 50 50 50 50

GFSNW_prec_cthk_102.txt.gz
RH
15 18 21 24 30 33 36 33 34 33 35 47 56 63 58 44 48 61 80 80 91 97 96 95 98 83 69 60 64 64 61 64 68 69 63 61 60 58 55 58 66 59 60 46
16 17 23 27 32 35 35 35 34 34 38 50 53 54 53 57 67 76 82 93 96 96 98 97 95 87 83 67 70 72 72 68 74 79 71 66 63 59 61 67 66 63 60 53
13 18 25 31 35 37 34 35 39 37 44 47 55 52 58 71 81 82 88 97 98 98 98 99 99 97 91 82 75 73 70 71 69 66 64 60 66 62 62 62 64 59 60 55
12 21 28 33 37 40 38 39 39 38 45 45 51 51 63 78 88 94 97 98 96 97 98 98 98 99 94 91 85 80 76 72 67 66 65 64 63 61 52 48 52 58 52 55
13 22 30 34 40 43 45 45 42 40 37 40 45 48 61 75 94 93 92 95 92 89 89 97 97 98 95 94 89 87 84 76 63 61 62 59 55 48 39 38 46 50 51 63
15 21 31 37 43 48 52 52 46 43 36 37 41 49 51 67 80 77 78 86 84 76 75 78 80 87 82 77 73 64 67 65 59 63 52 48 43 41 43 41 42 53 55 62
18 24 33 40 46 52 57 58 57 51 45 39 41 41 44 53 65 68 68 77 75 71 71 66 64 62 62 54 52 49 48 42 41 45 44 41 49 47 43 40 47 51 64 78
20 26 35 42 46 56 61 64 65 58 52 41 40 46 47 48 53 62 66 71 70 67 63 63 56 57 57 57 52 48 48 45 46 40 36 44 58 57 50 47 51 58 76 86
22 27 37 45 49 60 64 68 71 67 56 44 41 45 53 56 56 57 60 65 67 66 65 60 61 61 56 53 53 46 47 49 47 44 44 45 58 53 48 46 55 62 68 91
29 29 35 46 50 61 68 73 74 72 63 53 46 48 51 57 64 64 63 63 65 66 68 63 63 59 58 61 57 59 56 57 58 52 55 57 62 59 53 51 68 66 64 70
33 28 34 44 52 63 71 75 80 78 68 61 57 53 52 54 56 60 60 62 69 70 68 66 66 65 63 67 67 75 65 67 67 61 66 75 77 69 69 77 71 64 61 61
35 30 37 45 57 68 77 79 84 82 76 71 68 61 58 56 54 51 60 62 69 72 71 70 70 71 68 67 71 65 84 78 75 73 78 83 89 87 84 81 79 76 72 69
37 30 37 47 61 71 79 83 91 88 83 76 74 72 68 61 54 44 47 55 67 71 73 71 73 79 73 71 70 69 75 71 78 79 80 84 88 89 88 84 79 78 78 76
38 30 43 51 63 72 83 87 90 92 90 82 74 72 76 72 64 57 43 47 65 75 73 75 72 70 69 74 75 73 72 72 78 80 84 84 90 93 90 91 89 84 84 81
36 39 49 62 74 80 87 92 94 94 94 86 77 75 78 79 74 68 63 49 44 54 65 72 73 68 68 72 73 74 75 76 76 78 82 89 91 96 95 92 91 90 87 82
38 47 57 72 82 86 90 93 96 97 95 94 81 76 79 81 78 76 72 65 51 50 66 71 70 70 74 78 79 83 84 83 82 82 84 91 93 93 94 94 92 90 85 83
40 52 67 79 85 89 90 93 90 92 97 95 84 76 75 78 79 76 76 71 76 62 65 69 72 74 78 82 80 82 89 90 93 91 90 91 97 96 96 94 91 88 83 81
42 58 74 85 90 92 93 98 93 96 96 91 84 82 80 77 78 79 76 73 75 76 72 65 74 79 77 80 76 82 88 89 93 97 97 97 97 97 96 92 90 87 82 80
49 73 85 90 92 92 92 97 97 98 98 94 86 85 87 82 80 79 78 76 78 77 78 77 77 75 78 76 72 76 82 86 87 94 97 97 96 93 89 86 84 80 77 74
60 85 87 91 92 94 98 99 98 98 98 90 79 78 79 77 80 82 79 79 80 77 76 79 78 72 74 74 72 71 66 67 81 86 87 88 88 85 81 78 77 76 74 72
73 84 88 93 98 99 98 98 96 92 88 79 75 78 79 80 80 80 79 82 78 73 76 79 73 66 66 68 71 66 66 76 79 83 84 83 81 79 76 74 73 70 69 69
77 91 96 99 98 98 97 92 90 80 73 69 66 70 77 80 83 86 87 80 79 74 79 80 68 67 69 71 68 68 81 88 88 87 85 80 78 77 76 77 75 69 65 62
98 98 98 98 96 98 88 80 75 68 63 59 65 73 79 84 87 87 87 90 90 87 84 78 71 70 74 76 80 86 88 88 87 86 85 82 79 73 64 58 53 49 47 45
98 99 97 94 96 80 68 58 56 55 56 65 73 78 80 86 88 90 97 91 92 89 85 80 78 81 85 87 88 87 86 83 82 80 73 58 47 42 41 41 42 43 44 45
99 98 93 84 79 73 61 57 60 62 68 75 77 78 80 84 91 90 93 94 91 86 86 85 81 80 80 82 81 79 76 65 45 38 39 39 40 42 43 44 45 46 44 43
95 88 79 75 70 73 72 67 66 66 69 74 74 80 84 86 87 94 92 89 86 87 80 80 85 82 68 60 50 41 39 39 39 40 41 43 44 45 45 46 45 44 45 45
96 85 79 80 76 76 68 64 68 70 72 71 74 78 82 89 87 90 86 86 85 78 79 81 51 46 41 40 41 42 42 42 43 44 45 45 45 45 45 46 46 44 42 41

GFSNW_prec_cthk_105.txt.gz
RH
17 15 16 19 25 22 26 29 41 24 27 52 47 44 47 55 71 79 81 87 93 98 97 92 94 80 51 59 61 58 65 73 82 81 67 66 62 63 60 61 63 48 59 70
17 16 17 22 25 23 31 33 33 26 37 46 46 40 51 63 69 75 86 96 98 98 98 97 97 88 72 59 69 65 61 67 83 93 73 70 73 67 65 70 68 58 56 70
20 15 21 30 24 25 30 33 42 37 40 40 43 44 53 62 74 84 88 94 98 94 98 98 98 96 79 74 73 79 69 76 77 75 65 65 69 71 60 59 58 64 51 60
17 19 28 27 26 28 33 37 36 30 45 46 39 45 53 61 73 73 80 88 86 94 96 95 97 95 90 82 80 79 79 85 85 80 74 68 70 69 63 67 59 58 68 59
22 24 28 26 30 30 40 31 44 35 36 35 40 42 55 57 59 69 72 77 80 82 85 91 95 93 92 96 88 83 77 69 67 69 69 70 67 59 53 50 51 57 57 82
29 27 24 29 33 35 45 41 37 39 37 37 39 40 40 51 52 56 62 69 72 74 77 79 80 85 84 83 83 92 85 71 70 72 62 60 61 62 62 60 73 67 74 79
27 22 25 34 35 39 48 48 48 49 52 38 40 33 36 42 44 46 55 60 64 67 71 68 74 68 76 73 68 74 69 71 64 63 56 61 69 66 62 69 64 58 62 67
29 22 31 34 38 41 47 53 54 54 51 43 37 37 37 42 47 45 46 53 58 55 66 69 71 70 65 60 56 54 56 54 49 47 51 57 69 67 61 62 75 58 62 75
25 29 29 34 38 45 49 56 56 60 54 53 38 37 38 45 46 49 49 48 52 55 62 62 66 65 67 60 58 48 51 51 51 51 42 70 87 63 57 50 73 65 58 73
33 27 29 36 39 44 53 57 60 61 60 54 47 51 46 49 51 52 54 47 52 56 61 76 64 64 57 61 56 58 53 53 59 53 55 67 67 60 52 70 88 75 67 64
32 26 30 37 39 46 55 62 63 66 64 57 55 53 50 48 51 57 59 56 55 57 60 59 61 69 59 73 59 67 66 76 65 62 61 80 73 62 69 77 72 69 66 63
34 33 29 34 39 46 59 65 68 71 69 64 61 58 54 51 50 50 53 58 63 62 64 63 64 72 63 60 95 64 78 72 74 71 77 82 85 85 84 81 80 78 76 73
34 35 29 33 41 48 62 71 76 74 74 68 66 67 68 61 53 47 47 54 64 65 68 70 67 76 64 70 74 66 68 66 72 73 78 77 83 88 89 88 83 81 82 81
38 38 31 35 43 54 69 74 80 80 82 79 77 62 70 70 63 54 45 49 59 68 67 74 68 67 64 67 72 73 68 69 75 77 76 79 79 85 90 89 87 84 81 80
42 40 32 36 46 59 73 80 80 83 86 92 84 71 72 73 72 66 63 53 45 52 65 73 80 72 65 70 68 78 74 75 75 78 74 75 84 86 91 95 92 89 85 80
44 39 33 45 52 68 79 83 80 86 89 92 84 88 74 73 75 73 75 67 57 45 56 62 71 72 74 77 82 81 78 80 78 76 74 76 80 90 92 93 93 90 87 83
46 39 45 53 70 78 81 83 89 85 93 93 86 81 74 70 75 74 75 74 72 68 61 72 73 75 72 80 78 78 76 81 81 82 83 84 85 90 94 93 91 87 84 82
44 44 53 69 77 84 85 88 87 92 94 94 91 79 75 73 70 73 74 73 72 74 77 65 58 76 73 73 77 75 82 83 85 88 93 94 95 96 95 92 89 87 84 82
44 50 61 76 83 87 91 91 92 96 95 93 84 78 90 80 80 77 76 76 76 70 74 75 74 70 77 76 74 71 72 75 75 82 89 93 93 92 92 91 87 84 83 81
50 55 72 81 86 92 93 95 95 98 98 88 82 80 91 79 76 77 79 78 78 81 74 69 69 70 74 72 71 70 68 68 66 72 77 83 87 87 85 83 81 78 75 73
57 70 77 86 92 93 95 95 95 94 88 78 75 75 82 79 83 82 77 80 77 72 78 77 74 71 66 65 66 66 65 66 66 77 81 82 81 80 78 77 75 72 68 62
66 79 85 93 98 97 95 91 90 82 73 70 68 74 79 80 80 86 88 85 77 73 82 81 73 69 66 64 66 68 68 67 74 83 82 80 78 74 71 68 61 55 52 50
85 86 91 97 94 94 84 81 74 66 63 65 67 75 75 77 79 84 86 83 84 84 87 84 79 70 69 72 71 71 71 77 81 82 82 80 77 69 59 52 45 41 40 40
81 93 97 97 87 73 67 57 59 63 65 67 71 73 73 78 82 87 83 91 88 89 84 78 72 70 73 74 76 81 84 83 80 78 72 53 39 36 37 38 40 41 42 42
95 98 94 76 76 70 70 67 70 68 67 67 79 79 80 86 85 82 85 92 91 86 86 86 80 79 80 79 76 75 70 58 43 38 37 37 38 39 40 42 42 41 39 38
98 93 85 75 71 71 68 65 64 64 71 74 75 82 83 80 79 82 82 85 88 95 84 80 79 80 63 56 51 46 42 43 42 40 40 41 42 43 43 41 40 38 37 37
97 97 84 79 75 72 72 67 66 68 70 73 73 76 76 79 77 81 85 89 88 86 78 80 56 49 47 46 43 41 40 42 43 44 45 44 44 42 42 41 40 39 36 33

GFSNW_prec_cthk_108.txt.gz
RH
24 23 21 21 21 20 23 32 42 28 20 52 50 42 48 49 51 58 67 79 93 95 97 91 93 91 78 43 56 80 82 91 80 72 71 73 88 90 83 82 66 73 95 99
27 24 23 22 23 23 31 36 35 27 33 49 44 41 54 53 55 58 63 78 87 92 93 94 95 93 80 61 69 78 77 87 91 93 80 75 76 68 71 82 83 74 77 97
26 24 25 25 23 26 31 31 42 41 39 36 42 48 53 53 52 55 60 74 80 83 86 90 98 96 80 66 64 64 67 76 75 96 86 70 79 73 76 66 80 66 81 97
30 23 27 26 26 30 28 37 39 34 45 50 35 51 52 53 50 50 56 63 74 80 90 92 92 94 80 72 74 81 79 84 97 96 77 68 81 75 72 72 68 69 85 86
30 24 27 26 32 28 35 22 49 39 35 31 37 52 49 51 50 49 50 57 63 77 76 87 94 93 86 78 84 85 84 90 83 97 86 78 91 65 58 72 76 84 97 98
38 25 31 32 36 28 41 38 31 38 49 36 40 50 37 43 47 43 43 54 54 65 70 79 80 86 83 80 84 87 86 77 78 71 65 67 69 70 81 74 76 79 89 89
37 29 30 37 30 32 39 43 46 47 49 39 42 38 35 37 43 46 43 46 50 51 68 75 74 77 72 71 74 83 84 77 71 70 65 89 86 83 80 83 83 79 77 72
34 30 37 31 33 35 37 40 46 53 50 47 41 37 37 38 45 47 49 45 44 47 58 71 82 75 75 67 59 61 74 75 72 70 70 81 77 79 82 86 88 75 61 66
41 32 30 31 37 35 39 45 45 51 51 64 45 38 48 46 44 50 50 45 46 46 53 71 75 68 68 75 78 66 63 68 62 66 62 87 91 77 60 67 79 75 63 63
44 30 27 35 35 35 43 49 48 52 56 61 47 49 53 46 47 53 52 45 48 46 58 70 71 79 69 77 73 63 69 66 72 67 81 80 74 60 53 67 88 86 77 69
46 30 33 35 33 36 43 50 51 56 58 57 50 50 48 48 49 50 52 55 53 49 55 52 52 61 57 91 69 67 64 94 71 73 81 88 74 62 68 80 81 77 72 72
40 37 32 32 35 38 44 58 57 59 58 57 52 49 48 48 48 47 45 58 62 59 60 58 56 68 63 63 98 67 73 68 72 66 77 81 82 84 84 81 81 80 77 74
43 37 28 30 34 38 45 54 61 61 61 57 58 74 64 58 58 48 47 60 62 70 63 64 65 70 66 64 79 73 67 63 68 70 76 78 79 82 87 88 87 82 81 80
38 33 34 28 33 39 46 57 68 70 70 70 78 65 61 60 60 56 47 47 52 59 63 69 68 69 68 64 67 73 64 62 69 69 72 76 78 79 81 85 87 85 83 79
40 37 35 30 30 40 50 64 70 71 75 83 83 81 68 64 65 65 61 54 43 43 53 68 74 83 72 65 72 69 65 66 70 73 74 73 76 79 84 83 84 88 87 85
42 40 38 32 37 45 59 69 71 76 76 83 80 92 88 70 70 69 71 67 58 51 46 55 66 77 75 72 87 88 81 73 77 78 77 76 78 78 80 83 85 85 84 84
48 43 39 34 42 51 63 75 84 80 81 85 82 82 82 67 68 71 71 68 66 62 52 50 65 79 75 73 83 86 77 76 80 79 81 80 83 80 80 84 87 86 86 83
56 46 41 44 52 60 66 78 86 87 86 89 87 82 83 68 67 64 66 65 64 64 72 70 62 63 69 68 73 74 76 82 82 83 82 88 87 87 87 85 83 83 84 82
55 47 50 62 67 71 77 79 87 90 91 88 83 80 85 74 78 73 69 69 68 64 68 67 64 70 66 70 70 72 73 73 72 67 68 74 77 82 84 84 84 84 82 78
47 53 63 67 70 77 86 89 88 92 91 85 80 77 89 84 78 71 72 73 72 80 78 70 67 60 70 72 70 71 72 69 67 66 66 72 77 79 78 76 76 76 75 73
52 59 65 71 75 85 91 92 91 87 82 76 75 74 85 77 77 81 81 81 74 68 71 75 72 69 74 71 69 66 69 64 62 63 67 78 80 79 76 72 68 64 58 52
54 61 73 81 86 93 94 91 89 78 70 72 69 71 74 83 82 82 84 83 78 69 80 81 75 77 72 67 64 64 65 64 65 68 72 76 77 76 72 64 54 46 39 38
60 76 87 88 90 93 82 78 77 69 67 73 72 79 79 76 76 78 80 77 75 75 83 77 87 76 73 71 70 67 70 72 71 75 78 77 73 61 49 41 37 34 35 36
76 92 93 85 83 73 66 61 58 63 69 71 74 76 72 73 74 74 75 75 82 85 81 82 81 72 70 72 73 75 77 79 76 71 56 38 34 34 35 36 37 37 37 36
83 87 97 79 75 74 71 69 71 73 73 72 75 74 71 74 73 72 73 82 81 82 86 89 82 76 73 76 78 76 70 54 41 37 37 37 37 37 38 38 38 37 36 35
84 83 93 88 79 78 73 73 75 76 79 73 71 75 76 72 73 77 71 73 79 93 89 84 83 80 74 61 52 47 42 41 39 37 36 37 38 38 38 38 36 35 34 32
78 78 87 96 83 80 82 77 76 77 74 74 73 76 72 72 73 71 67 75 82 86 87 81 68 52 49 48 44 40 39 38 36 37 37 37 39 40 39 37 36 34 31 31

GFSNW_prec_cthk_114.txt.gz
RH
58 59 41 48 32 32 44 42 47 23 27 42 42 38 33 35 37 35 41 48 65 73 72 71 82 87 88 89 89 84 86 96 94 95 89 80 77 68 65 73 78 85 97 97
65 52 46 34 30 45 42 46 43 28 44 48 42 35 36 36 36 36 42 54 61 62 72 76 81 85 81 78 81 85 86 97 92 96 93 88 88 81 75 86 93 98 97 97
60 44 35 29 47 42 47 42 45 33 39 39 37 36 37 36 34 36 41 51 55 59 69 78 82 85 75 73 71 66 75 84 90 91 91 95 98 88 88 95 97 96 96 97
48 37 31 49 40 41 42 39 44 38 42 38 32 35 36 32 33 34 40 46 49 52 71 75 82 83 78 71 64 66 73 88 92 93 98 96 94 96 98 98 97 95 97 96
40 36 47 44 42 38 40 35 42 32 38 39 32 38 38 31 34 35 39 42 43 48 58 65 77 78 79 82 70 76 77 93 98 98 98 96 97 97 98 98 98 97 96 96
49 42 46 47 36 36 42 41 39 38 37 35 36 38 32 30 36 35 36 41 39 45 52 61 63 69 76 79 85 84 80 79 94 97 97 92 87 98 96 96 96 96 94 92
49 45 53 39 35 37 44 42 44 44 44 41 35 34 32 29 36 41 39 34 36 38 43 58 64 60 71 75 77 81 81 78 82 97 90 91 98 98 94 93 95 95 93 92
56 57 45 33 37 43 46 43 41 45 48 44 39 37 36 31 33 37 35 31 33 35 47 63 70 72 69 73 76 73 78 83 86 97 92 97 91 95 95 93 95 95 89 85
65 55 33 36 41 42 46 43 42 46 46 48 45 41 37 35 35 35 32 32 31 35 52 74 83 86 81 80 72 68 81 84 88 94 91 96 95 89 82 73 82 86 86 82
51 50 41 38 47 44 42 39 37 41 44 47 45 40 36 36 38 36 34 32 35 35 48 68 84 85 88 94 83 78 84 88 94 93 90 92 88 81 75 69 83 86 85 83
65 56 41 47 44 42 43 37 36 37 40 47 44 34 34 36 35 38 32 36 42 41 53 62 73 85 87 95 85 79 87 86 86 87 86 87 82 71 74 79 79 79 80 77
51 46 44 44 44 43 37 36 38 38 40 40 38 34 35 37 38 38 42 47 49 51 52 57 61 79 86 84 96 78 79 77 80 77 80 81 81 79 79 81 82 79 77 76
63 49 43 45 44 40 33 39 42 43 41 41 49 52 43 41 43 42 47 48 48 48 50 54 65 70 76 85 83 77 74 67 68 70 73 72 72 73 74 76 75 75 77 78
56 56 39 42 43 37 36 45 46 45 44 54 54 51 49 49 44 45 46 41 40 35 43 52 56 66 66 76 79 75 72 68 66 70 70 70 70 70 68 68 69 69 72 75
59 52 46 41 40 36 40 43 48 50 49 58 59 56 55 53 46 49 51 50 47 39 39 45 53 62 69 70 78 79 71 70 71 71 68 67 68 68 65 64 64 68 71 73
68 56 57 44 34 37 41 45 49 51 54 58 57 61 64 60 58 56 55 55 52 48 43 39 45 58 65 72 79 80 77 71 70 69 70 68 69 69 66 66 68 69 69 72
81 70 58 37 32 38 40 45 54 53 58 61 61 67 72 68 61 58 55 57 54 52 54 41 41 52 64 75 79 77 74 78 80 77 73 73 72 71 72 74 77 76 73 71
68 59 44 40 35 36 49 57 58 58 63 63 62 64 67 66 59 56 54 51 54 51 52 58 55 49 55 67 77 73 72 77 80 76 67 60 61 62 63 68 70 70 68 67
63 55 44 38 35 41 59 61 65 65 69 63 62 63 70 68 69 66 61 58 57 55 60 61 61 64 67 63 64 72 71 74 78 68 64 61 62 64 68 70 69 68 68 66
55 47 37 36 36 52 63 68 69 68 70 68 65 60 67 68 72 69 64 64 68 72 70 65 67 72 69 69 70 66 69 71 70 68 64 57 64 70 72 71 69 65 58 50
52 46 52 49 52 60 70 76 74 70 67 60 61 61 68 74 78 75 68 75 75 73 67 70 74 72 68 72 69 69 66 66 71 71 66 64 72 71 66 64 54 43 36 33
55 61 62 67 73 73 76 77 76 67 59 58 60 60 65 75 78 74 77 78 75 73 67 72 73 74 74 73 76 75 72 70 69 70 71 74 72 63 44 34 31 32 32 31
74 74 73 75 76 79 75 76 69 63 55 61 59 66 69 75 80 81 78 71 72 66 69 71 67 76 71 74 76 75 72 69 66 70 74 70 49 35 33 33 32 32 31 30
86 87 83 77 70 68 65 59 55 50 57 61 66 71 72 75 82 79 70 64 64 67 74 73 79 73 71 73 77 77 76 79 79 72 48 35 34 32 32 33 33 32 30 29
82 79 77 72 69 62 62 64 61 62 64 69 73 72 69 75 72 69 62 67 66 71 77 82 78 71 70 71 75 80 77 67 43 36 33 32 30 31 32 33 33 33 32 30
69 62 71 67 69 65 64 66 67 67 71 73 74 74 69 66 64 65 58 57 59 61 77 81 78 73 73 77 72 62 49 40 35 31 30 30 30 30 29 30 31 31 31 31
64 66 71 64 67 70 66 65 82 87 84 80 79 75 67 65 68 63 54 55 57 62 68 77 79 76 60 53 51 44 38 33 30 29 29 29 29 28 29 29 30 31 34 36

GFSNW_prec_cthk_120.txt.gz
RH
98 98 98 97 91 72 59 64 65 64 54 64 58 47 39 40 34 29 33 35 36 45 48 56 63 68 68 68 67 70 73 80 85 73 82 76 87 79 77 85 74 90 96 97
97 98 97 83 67 60 67 69 67 61 70 63 55 43 43 37 31 32 34 36 39 42 50 58 67 69 65 69 68 81 84 88 86 76 84 87 86 85 82 73 77 92 95 97
95 88 74 63 66 67 64 57 66 68 66 54 42 44 40 35 31 30 33 35 39 42 46 55 65 68 67 67 69 82 90 89 91 91 92 92 92 86 88 80 90 97 97 96
77 66 64 64 65 73 61 65 54 63 64 52 43 43 37 33 30 30 32 36 36 41 45 48 62 67 71 68 75 83 91 98 96 91 92 94 96 93 93 93 97 94 97 96
67 60 67 73 70 60 66 50 59 52 48 44 44 43 35 31 30 30 31 31 35 37 39 38 50 63 68 76 81 87 95 98 98 92 95 95 97 95 97 96 96 96 95 96
67 75 74 53 62 69 45 49 49 44 44 43 44 39 34 30 30 34 32 33 33 33 34 36 44 59 69 76 86 87 95 98 97 94 86 79 87 97 97 96 95 94 92 96
83 70 55 57 62 47 45 56 51 42 46 40 34 36 32 30 31 35 35 33 30 28 27 35 50 61 67 78 82 81 93 99 96 97 95 90 96 98 97 95 97 96 97 95
76 55 54 53 51 46 58 56 48 35 45 38 33 34 33 33 30 33 33 29 25 25 25 41 52 58 66 76 76 76 86 98 97 92 93 96 95 94 96 94 93 92 88 90
70 54 46 51 47 55 63 54 37 34 38 42 36 37 35 35 32 32 30 27 24 26 31 45 59 72 75 79 73 71 81 98 98 92 87 94 94 92 89 92 89 87 85 86
56 43 48 51 58 65 60 48 39 41 42 41 38 37 37 35 33 31 28 25 28 28 36 51 62 71 78 83 79 81 83 92 97 94 92 92 92 87 83 81 87 82 80 78
57 44 50 57 67 66 52 46 46 40 40 42 39 39 33 29 28 28 27 29 34 34 40 47 57 69 77 88 83 83 88 91 96 96 89 91 88 84 76 79 78 77 75 74
66 51 55 67 72 58 54 42 42 39 40 38 38 34 29 31 32 31 34 37 40 40 41 47 54 64 73 84 90 80 81 85 87 94 95 95 95 91 84 80 79 79 76 74
66 60 61 72 64 53 49 45 44 38 39 38 38 34 35 35 33 34 35 38 38 39 42 46 55 59 66 76 83 84 84 76 81 88 88 85 84 84 78 75 74 75 74 71
74 64 68 74 56 57 49 49 47 37 34 41 46 41 43 40 38 36 35 37 36 33 39 45 50 54 55 66 73 77 78 76 74 75 78 79 73 71 68 67 67 68 65 64
79 75 83 64 60 56 59 49 48 42 37 43 46 49 46 41 41 41 41 39 36 34 38 42 47 52 54 57 63 69 73 75 75 69 64 66 67 67 67 67 67 67 64 63
90 80 73 70 65 65 53 52 54 41 42 42 51 51 50 46 46 46 46 44 41 39 40 37 40 46 49 54 60 64 68 69 76 77 71 67 66 68 69 69 70 68 66 62
73 73 81 71 66 58 52 51 45 44 45 45 53 55 54 51 50 50 48 46 45 45 44 43 40 42 49 55 59 60 63 67 74 78 80 76 70 67 65 64 64 62 58 54
81 75 64 69 62 59 59 50 46 49 51 48 57 60 59 55 54 52 46 45 45 46 46 49 49 47 48 48 52 59 62 68 77 75 71 69 66 63 63 65 63 60 56 50
71 69 68 70 62 63 55 49 49 53 53 49 52 56 64 59 55 51 51 50 50 50 50 52 55 57 56 51 53 54 59 65 77 74 70 63 62 64 64 61 58 56 44 33
68 60 62 57 63 58 54 56 57 58 56 52 52 54 59 55 57 55 52 52 58 60 62 63 61 56 53 56 58 60 60 61 68 74 73 65 61 63 62 58 46 35 31 31
80 65 59 60 86 70 61 63 63 61 56 54 54 54 58 57 58 59 57 62 63 61 65 65 62 55 53 57 60 63 66 65 63 72 74 67 63 66 58 42 36 33 30 28
71 65 77 86 77 71 66 66 65 57 54 55 56 56 60 60 57 59 63 64 64 66 67 65 55 50 53 64 65 68 68 67 64 66 72 68 67 65 44 37 33 31 28 26
83 79 79 79 76 74 66 65 61 58 52 54 54 60 61 62 62 64 65 64 68 64 65 59 50 54 62 65 71 74 72 69 63 59 64 67 71 50 35 31 30 27 26 27
79 77 72 74 68 67 61 57 53 51 50 51 55 61 58 61 64 67 64 64 63 64 58 59 63 65 68 69 73 76 71 68 64 64 64 69 56 37 31 29 27 26 27 28
84 82 74 75 62 62 63 59 59 57 55 56 59 59 59 62 64 64 61 64 64 56 56 60 68 72 66 69 71 76 75 73 69 69 68 48 38 31 29 26 26 28 30 31
78 74 69 68 65 68 70 66 65 66 66 64 62 63 62 62 60 60 60 59 55 49 52 56 72 73 67 64 69 76 77 72 65 49 41 36 32 29 27 27 30 32 33 32
75 76 72 69 67 70 76 76 74 72 71 71 66 62 59 59 61 61 56 51 46 44 50 49 60 65 69 60 63 73 62 55 46 37 33 31 29 28 28 30 33 33 33 34

GFSNW_prec_cthk_123.txt.gz
RH
89 91 94 91 94 99 97 95 92 80 65 71 63 47 50 55 52 43 43 41 37 38 44 46 49 54 55 55 58 61 70 78 74 70 69 76 77 77 74 80 73 80 90 95
97 98 98 98 99 98 95 90 86 79 74 71 68 59 58 54 49 49 44 39 36 38 45 46 54 55 54 56 60 72 79 81 73 61 70 71 88 87 92 82 81 89 94 95
97 97 97 98 97 95 84 76 87 81 80 69 57 60 57 52 50 44 41 39 36 37 41 47 50 56 54 59 64 73 84 82 77 78 83 85 89 86 82 89 90 93 96 95
98 98 97 96 95 88 75 68 76 72 81 69 67 60 48 52 50 44 35 34 34 37 40 41 46 54 57 64 70 75 84 91 92 85 87 91 93 92 90 92 98 95 96 95
98 97 93 89 88 82 72 66 70 67 71 66 58 54 53 47 42 35 32 31 33 34 34 30 35 46 56 66 70 78 85 93 98 93 89 94 96 97 97 94 92 94 95 95
87 84 81 86 87 79 70 61 62 64 64 63 58 53 51 47 42 35 29 31 31 31 30 31 32 44 55 63 71 77 88 94 94 95 95 90 89 97 97 93 93 94 93 96
79 78 80 82 78 70 65 62 51 64 61 49 52 49 46 45 36 32 32 32 29 27 26 28 41 50 56 64 70 74 81 89 94 92 97 93 97 97 97 95 96 95 95 96
70 75 77 82 71 71 64 46 56 46 54 48 51 47 42 39 32 33 35 31 25 24 22 34 43 48 55 63 72 73 81 88 94 92 91 95 96 94 96 96 96 95 96 92
82 78 62 66 74 68 52 51 55 50 43 52 49 45 42 35 32 31 30 28 24 22 25 38 47 49 58 66 68 74 74 85 96 86 88 91 95 95 95 93 90 87 82 81
71 59 66 66 59 45 48 61 59 39 43 47 44 43 40 33 29 28 29 27 25 24 30 44 50 56 61 66 69 74 70 84 95 93 91 92 94 90 88 91 91 86 83 78
64 63 56 54 47 56 66 62 46 39 46 50 47 42 37 27 25 24 27 27 30 30 35 41 48 56 64 70 72 75 74 82 90 96 94 94 94 91 82 83 82 79 78 75
69 51 48 52 65 66 64 52 46 46 46 49 47 43 29 24 24 26 30 31 33 32 35 40 47 55 62 66 79 75 75 75 82 90 94 96 96 93 86 84 83 81 77 75
62 48 52 66 69 66 57 52 50 50 49 52 48 40 31 31 30 30 30 34 33 33 35 42 48 53 57 64 70 73 78 76 75 84 90 92 94 93 89 87 84 82 75 70
69 52 59 69 73 62 52 48 47 47 46 53 55 46 40 35 31 29 29 30 29 32 35 40 45 50 53 59 61 66 74 74 73 75 84 84 84 82 80 79 77 72 68 63
75 57 64 74 73 57 55 49 52 50 45 53 58 50 43 39 37 34 33 30 29 29 32 37 43 49 51 54 55 62 64 69 72 71 66 70 71 67 66 66 65 64 62 60
76 66 72 77 63 56 56 55 59 53 49 53 60 57 49 44 41 40 37 36 32 31 33 37 40 46 45 48 51 55 59 63 68 73 72 64 63 65 64 64 63 61 58 55
88 79 76 78 62 62 63 61 53 59 51 51 62 60 53 47 42 40 40 39 39 37 38 38 39 42 44 47 49 50 55 57 67 72 72 77 73 68 66 63 60 57 52 49
93 87 84 71 66 64 65 52 57 55 49 53 60 60 57 48 45 46 42 40 39 39 42 43 43 42 44 44 45 49 53 57 63 73 77 75 76 71 67 66 64 57 51 43
93 88 79 75 71 69 58 57 57 53 51 55 57 54 59 49 51 48 47 44 44 45 45 46 48 50 49 41 44 46 50 56 65 69 70 72 69 70 69 66 60 54 39 28
77 86 80 76 72 65 61 67 57 55 57 56 53 54 56 53 51 50 47 46 51 52 53 54 56 51 46 48 49 50 52 54 61 71 72 69 67 69 69 64 51 36 31 30
80 66 65 85 74 71 71 64 60 60 62 56 53 53 54 53 52 51 52 55 56 54 56 57 58 51 45 49 52 56 58 59 62 68 74 72 67 69 68 51 40 34 32 30
74 73 85 79 74 74 67 66 66 61 60 55 54 52 51 54 51 54 57 57 57 56 60 58 52 44 46 51 58 60 62 67 66 64 73 78 73 70 59 42 38 34 30 26
72 80 84 75 83 77 70 68 64 62 57 51 52 56 55 56 55 57 58 59 61 59 58 53 45 47 52 59 64 71 69 68 67 64 70 77 72 70 51 38 35 29 25 26
81 79 82 84 80 74 67 61 59 57 50 49 54 56 55 57 59 62 60 58 59 58 56 53 55 60 62 64 70 75 74 70 68 62 64 68 69 69 45 33 31 25 26 29
85 78 83 81 70 69 69 69 64 54 51 55 55 53 53 58 59 58 58 60 58 53 51 52 57 63 64 66 69 73 76 69 66 65 65 66 70 55 36 30 26 26 29 32
85 84 81 81 76 79 74 69 65 57 57 57 55 58 58 59 57 56 55 53 50 46 50 50 54 60 63 63 64 67 76 77 74 69 68 69 53 39 32 28 26 28 30 31
80 82 80 82 78 81 73 71 69 63 61 64 59 57 57 58 57 56 51 48 44 42 46 47 46 52 60 67 57 59 75 71 70 63 53 45 38 32 29 28 29 30 30 30